Weather Roundup
Issued by NWS

Home | Current Version | Previous Version | Text Only | Print | Product List | Glossary On
Versions: 1 2 3 4 5 6 7 8 9 10 11 12 13 14 15 16 17 18 19 20 21 22 23 24 25 26 27 28 29 30 31 32 33 34 35 36 37 38 39 40 41 42 43 44 45 46 47 48 49 50
000
NZUS93 KARX 042059
HRRWXR

CURRENT HOURLY OBSERVATIONS ACROSS
MUCH OF THE UPPER MISSISSIPPI VALLEY
NATIONAL WEATHER SERVICE LA CROSSE WI
400 PM CDT MON MAY 04 2015


...SOUTHEAST MINNESOTA...


CITY           SKY/WX    TMP DP  RH WIND       PRES   REMARKS
ROCHESTER      CLOUDY    67  37  33 NE9       30.17F
ROCHESTER/MAYO FAIR      67  35  30 NE9       30.17S
WINONA         PTSUNNY   70  36  28 CALM      30.16S
AUSTIN         PTSUNNY   66  39  37 NE8       30.16S
ALBERT LEA     PTSUNNY   70  32  24 E13       30.16S
DODGE CENTER   CLOUDY    66  32  28 NE10G18   30.17S
PRESTON        PTSUNNY   65  38  36 N7        30.16F
OWATONNA       CLOUDY    66  30  26 NE13G18   30.17S
FARIBAULT      PTSUNNY   70  30  23 NE9G16    30.17S
$$

...ELSEWHERE IN MINNESOTA...


CITY           SKY/WX    TMP DP  RH WIND       PRES   REMARKS
MINNEAPOLIS    PTSUNNY   71  29  21 N9        30.17S
INTNL FALLS    MOSUNNY   63  28  26 N13       30.20F
DULUTH         PTSUNNY   66  18  15 N10       30.18F
RED WING       PTSUNNY   70  28  21 NE8       30.15S
REDWOOD FALLS  MOSUNNY   74  24  15 N7        30.15F
MANKATO        PTSUNNY   66  34  30 NE13      30.17S
WORTHINGTON    CLOUDY    68  28  22 E15       30.16S
FAIRMONT       CLOUDY    70  25  18 E14G22    30.15F
$$

...SOUTHWEST WISCONSIN...


CITY           SKY/WX    TMP DP  RH WIND       PRES   REMARKS
LA CROSSE      PTSUNNY   73  37  27 NW10      30.13F
PRAIRIE DU CHI PTSUNNY   73  46  38 N8        30.11S
BOSCOBEL       PTSUNNY   76  48  37 VRB7      30.11F
LONE ROCK      NOT AVBL
PLATTEVILLE    MOSUNNY   73  56  56 E6        30.12S
FORT MC COY    PTSUNNY   72  32  22 CALM      30.14F
VIROQUA        FAIR      70  40  33 CALM      30.15S
WIS DELLS      NOT AVBL
$$

...ELSEWHERE IN WISCONSIN...


CITY           SKY/WX    TMP DP  RH WIND       PRES   REMARKS
MILWAUKEE      PTSUNNY   59  41  51 NE9       30.16S
MADISON        PTSUNNY   73  53  49 NE8       30.12F
GREEN BAY      MOSUNNY   74  40  29 SW7       30.12F
EAU CLAIRE     NOT AVBL
BLACK RVR FLS  FAIR      71  30  22 NW5       30.14S
MEDFORD        SUNNY     66  32  27 NE8       30.16F
WAUSAU         MOSUNNY   69  28  21 N8        30.14S
WIS RAPIDS     MOSUNNY   70  31  23 NE5       30.15S
MARSHFIELD     MOSUNNY   70  34  26 N9        30.15F
RICE LAKE      SUNNY     68  24  18 N6        30.18F
$$

...NORTHEAST IOWA...


CITY           SKY/WX    TMP DP  RH WIND       PRES   REMARKS
DECORAH        PTSUNNY   68  41  37 E10       30.13F
MASON CITY     PTSUNNY   69  39  33 NE14      30.16S
CHARLES CITY   PTSUNNY   68  43  40 NE13      30.14F
OELWEIN        CLOUDY    70  55  60 E8G15     30.13S
$$

...ELSEWHERE IN IOWA...


CITY           SKY/WX    TMP DP  RH WIND       PRES   REMARKS
DES MOINES     LGT RAIN  69  61  75 NE12      30.05F
IOWA CITY      PTSUNNY   72  62  71 E9        30.09S
FORT DODGE     CLOUDY    64  48  55 NE12      30.14S
$$

...NORTHERN ILLINOIS...


CITY           SKY/WX    TMP DP  RH WIND       PRES   REMARKS
CHICAGO-OHARE  CLOUDY    70  56  61 E13       30.12S
CHICAGO-MIDWAY CLOUDY    68  57  68 E12       30.13S
MOLINE         MOSUNNY   76  61  59 E14       30.07F
ROCKFORD       PTSUNNY   73  56  54 SE5       30.12F
PEORIA         PTSUNNY   76  64  66 E5        30.10F
$$

NOTE: "FAIR" INDICATES FEW OR NO CLOUDS BELOW 12,000 FEET WITH NO
SIGNIFICANT WEATHER AND/OR OBSTRUCTIONS TO VISIBILITY. WIND
SPEEDS ARE IN MILES-PER-HOUR.



USA.gov is the U.S. government's official web portal to all federal, state and local government web resources and services.